TimeEST,TemperatureF,Dew PointF,Humidity,Sea Level PressureIn,VisibilityMPH,Wind Direction,Wind SpeedMPH,Gust SpeedMPH,PrecipitationIn,Events,Conditions,WindDirDegrees,DateUTC
12:53 AM,48.9,46.0,90,30.00,10.0,NW,4.6,-,N/A,,Clear,310,2012-11-08 05:53:00
1:37 AM,48.2,46.4,93,30.01,9.0,WNW,3.5,-,N/A,,Partly Cloudy,300,2012-11-08 06:37:00
1:53 AM,48.0,46.0,93,30.01,8.0,Variable,4.6,-,N/A,,Scattered Clouds,0,2012-11-08 06:53:00
2:03 AM,48.2,46.4,93,30.01,8.0,WNW,5.8,-,N/A,,Mostly Cloudy,300,2012-11-08 07:03:00
2:53 AM,46.9,45.0,93,30.02,8.0,WNW,6.9,-,N/A,,Overcast,300,2012-11-08 07:53:00
3:53 AM,46.9,44.1,90,30.03,6.0,NW,5.8,-,N/A,,Mostly Cloudy,310,2012-11-08 08:53:00
4:53 AM,46.0,44.1,93,30.05,5.0,NW,3.5,-,N/A,,Mostly Cloudy,320,2012-11-08 09:53:00
5:08 AM,44.6,42.8,93,30.05,6.0,NW,4.6,-,N/A,,Scattered Clouds,320,2012-11-08 10:08:00
5:30 AM,46.4,44.6,93,30.05,5.0,Calm,Calm,-,N/A,,Mostly Cloudy,0,2012-11-08 10:30:00
5:53 AM,45.0,43.0,93,30.07,5.0,NW,4.6,-,N/A,,Overcast,320,2012-11-08 10:53:00
6:40 AM,44.6,42.8,93,30.08,5.0,NNW,5.8,-,N/A,,Scattered Clouds,330,2012-11-08 11:40:00
6:53 AM,45.0,43.0,93,30.09,4.0,NNW,5.8,-,N/A,,Mostly Cloudy,330,2012-11-08 11:53:00
7:13 AM,44.6,42.8,93,30.09,3.0,NNW,5.8,-,N/A,,Scattered Clouds,330,2012-11-08 12:13:00
7:53 AM,46.9,44.1,90,30.11,4.0,NW,5.8,-,N/A,,Clear,320,2012-11-08 12:53:00
8:53 AM,51.1,46.0,83,30.13,7.0,NW,10.4,-,N/A,,Clear,320,2012-11-08 13:53:00
9:53 AM,54.0,45.0,72,30.15,10.0,Variable,6.9,-,N/A,,Clear,0,2012-11-08 14:53:00
10:53 AM,57.0,44.1,62,30.15,10.0,Variable,5.8,-,N/A,,Clear,0,2012-11-08 15:53:00
11:53 AM,61.0,42.1,50,30.15,10.0,North,6.9,-,N/A,,Clear,360,2012-11-08 16:53:00
12:53 PM,62.1,39.9,44,30.13,10.0,Variable,3.5,-,N/A,,Clear,0,2012-11-08 17:53:00
1:53 PM,63.0,41.0,45,30.11,10.0,Variable,6.9,-,N/A,,Clear,0,2012-11-08 18:53:00
2:53 PM,64.9,39.9,40,30.10,10.0,WNW,5.8,-,N/A,,Clear,300,2012-11-08 19:53:00
3:53 PM,64.0,37.9,38,30.10,10.0,Variable,3.5,-,N/A,,Clear,0,2012-11-08 20:53:00
4:53 PM,63.0,39.0,41,30.11,10.0,NW,3.5,-,N/A,,Clear,320,2012-11-08 21:53:00
5:53 PM,55.9,43.0,62,30.13,10.0,Calm,Calm,-,N/A,,Clear,0,2012-11-08 22:53:00
6:53 PM,53.1,44.1,71,30.15,10.0,Calm,Calm,-,N/A,,Clear,0,2012-11-08 23:53:00
7:53 PM,52.0,44.1,74,30.16,10.0,Calm,Calm,-,N/A,,Clear,0,2012-11-09 00:53:00
8:53 PM,50.0,43.0,77,30.17,10.0,Calm,Calm,-,N/A,,Clear,0,2012-11-09 01:53:00
9:53 PM,48.9,43.0,80,30.18,10.0,Calm,Calm,-,N/A,,Clear,0,2012-11-09 02:53:00
10:53 PM,46.9,43.0,86,30.18,10.0,Calm,Calm,-,N/A,,Clear,0,2012-11-09 03:53:00
11:53 PM,46.0,43.0,89,30.18,10.0,Calm,Calm,-,N/A,,Clear,0,2012-11-09 04:53:00